• In Hungary
  • List of Countries
  • For 7 days
  • Water Temperature
  • Satellite Maps
  • Weather Map
  • News
  • Weather Widgets
  • user-avatar
    Login

    Hourly Weather Nagumanovka

    Today, 21 October, Sunday

    Time Temperature Precipitation Wind Pressure Humidity
    00:00 +8°C° 0 mm 4 mps 750 mmHg 51%
    01:00 +8°C° 0 mm 4 mps 750 mmHg 54%
    02:00 +8°C° 0 mm 4 mps 750 mmHg 57%
    03:00 +8°C° 0 mm 3 mps 750 mmHg 61%
    04:00 +8°C° 0 mm 3 mps 750 mmHg 64%
    05:00 +8°C° 0 mm 3 mps 750 mmHg 68%
    06:00 +7°C° 0 mm 2 mps 751 mmHg 72%
    07:00 +7°C° 0 mm 2 mps 751 mmHg 77%
    08:00 +8°C° 0 mm 2 mps 751 mmHg 74%
    09:00 +9°C° 0 mm 3 mps 752 mmHg 71%
    10:00 +10°C° 0 mm 3 mps 752 mmHg 67%
    11:00 +11°C° 0 mm 3 mps 752 mmHg 61%
    12:00 +11°C° 0 mm 3 mps 753 mmHg 55%
    13:00 +12°C° 0 mm 3 mps 753 mmHg 49%
    14:00 +12°C° 0 mm 4 mps 753 mmHg 49%
    15:00 +11°C° 0 mm 4 mps 753 mmHg 49%
    16:00 +11°C° 0 mm 4 mps 753 mmHg 48%
    17:00 +10°C° 0 mm 3 mps 754 mmHg 53%
    18:00 +9°C° 0 mm 3 mps 754 mmHg 58%
    19:00 +8°C° 0 mm 3 mps 755 mmHg 62%
    20:00 +7°C° 0 mm 3 mps 755 mmHg 65%
    21:00 +5°C° 0 mm 3 mps 755 mmHg 68%
    22:00 +5°C° 0 mm 3 mps 756 mmHg 71%
    23:00 +4°C° 0 mm 3 mps 756 mmHg 73%

    Tomorrow, 22 October, Monday

    Time Temperature Precipitation Wind Pressure Humidity
    00:00 +4°C° 0 mm 3 mps 756 mmHg 74%
    01:00 +4°C° 0 mm 2 mps 756 mmHg 76%
    02:00 +4°C° 0 mm 2 mps 756 mmHg 76%
    03:00 +4°C° 0 mm 2 mps 757 mmHg 76%
    04:00 +3°C° 0 mm 2 mps 757 mmHg 76%
    05:00 +3°C° 0 mm 2 mps 757 mmHg 77%
    06:00 +3°C° 0 mm 2 mps 757 mmHg 78%
    07:00 +3°C° 0 mm 2 mps 757 mmHg 79%
    08:00 +3°C° 0 mm 3 mps 757 mmHg 73%
    09:00 +4°C° 0 mm 3 mps 758 mmHg 66%
    10:00 +5°C° 0 mm 3 mps 758 mmHg 60%
    11:00 +7°C° 0 mm 3 mps 758 mmHg 55%
    12:00 +8°C° 0 mm 2 mps 758 mmHg 50%
    13:00 +9°C° 0 mm 2 mps 758 mmHg 46%
    14:00 +9°C° 0 mm 2 mps 758 mmHg 45%
    15:00 +9°C° 0 mm 2 mps 757 mmHg 44%
    16:00 +10°C° 0 mm 1 mps 757 mmHg 43%
    17:00 +8°C° 0 mm 2 mps 757 mmHg 46%
    18:00 +7°C° 0 mm 2 mps 757 mmHg 49%
    19:00 +6°C° 0 mm 2 mps 757 mmHg 53%
    20:00 +5°C° 0 mm 2 mps 757 mmHg 54%
    21:00 +5°C° 0 mm 2 mps 757 mmHg 55%
    22:00 +5°C° 0 mm 2 mps 757 mmHg 56%
    23:00 +4°C° 0 mm 2 mps 757 mmHg 56%

    Day after tomorrow, 23 October, Tuesday

    Time Temperature Precipitation Wind Pressure Humidity
    00:00 +4°C° 0 mm 2 mps 757 mmHg 57%
    01:00 +4°C° 0 mm 2 mps 757 mmHg 58%
    02:00 +4°C° 0 mm 2 mps 757 mmHg 59%
    03:00 +3°C° 0 mm 2 mps 757 mmHg 60%
    04:00 +3°C° 0 mm 2 mps 757 mmHg 62%
    05:00 +3°C° 0 mm 2 mps 756 mmHg 63%
    06:00 +3°C° 0 mm 2 mps 756 mmHg 65%
    07:00 +3°C° 0 mm 2 mps 756 mmHg 67%
    08:00 +3°C° 0 mm 3 mps 756 mmHg 62%
    09:00 +5°C° 0 mm 3 mps 756 mmHg 58%
    10:00 +8°C° 0 mm 3 mps 756 mmHg 53%
    11:00 +8°C° 0 mm 4 mps 755 mmHg 50%
    12:00 +11°C° 0 mm 4 mps 755 mmHg 48%
    13:00 +12°C° 0 mm 5 mps 754 mmHg 45%
    14:00 +13°C° 0 mm 4 mps 754 mmHg 46%
    15:00 +13°C° 0 mm 4 mps 753 mmHg 48%
    16:00 +13°C° 0 mm 4 mps 753 mmHg 49%
    17:00 +12°C° 0 mm 4 mps 752 mmHg 53%
    18:00 +11°C° 0 mm 4 mps 752 mmHg 57%
    19:00 +10°C° 0 mm 4 mps 752 mmHg 61%
    20:00 +10°C° 0 mm 4 mps 751 mmHg 63%
    21:00 +9°C° 0 mm 5 mps 751 mmHg 64%
    22:00 +9°C° 0 mm 6 mps 751 mmHg 65%
    23:00 +10°C° 0 mm 6 mps 751 mmHg 65%

    24 October, Wednesday

    Time Temperature Precipitation Wind Pressure Humidity
    00:00 +10°C° 0 mm 6 mps 751 mmHg 66%
    01:00 +10°C° 0 mm 6 mps 750 mmHg 66%
    02:00 +10°C° 0 mm 7 mps 750 mmHg 65%
    03:00 +10°C° 0 mm 7 mps 750 mmHg 64%
    04:00 +9°C° 0 mm 7 mps 749 mmHg 64%
    05:00 +9°C° 0 mm 7 mps 749 mmHg 63%
    06:00 +9°C° 0 mm 7 mps 749 mmHg 62%
    07:00 +9°C° 0 mm 7 mps 749 mmHg 62%
    08:00 +9°C° 0 mm 7 mps 748 mmHg 59%
    09:00 +9°C° 0 mm 7 mps 748 mmHg 56%
    10:00 +10°C° 0 mm 8 mps 748 mmHg 53%
    11:00 +11°C° 0 mm 8 mps 748 mmHg 49%
    12:00 +13°C° 0 mm 8 mps 748 mmHg 46%
    13:00 +15°C° 0 mm 8 mps 747 mmHg 42%
    14:00 +15°C° 0 mm 7 mps 747 mmHg 42%
    15:00 +15°C° 0 mm 6 mps 747 mmHg 42%
    16:00 +16°C° 0 mm 5 mps 747 mmHg 42%
    17:00 +15°C° 0 mm 5 mps 747 mmHg 45%
    18:00 +14°C° 0 mm 5 mps 747 mmHg 48%
    19:00 +13°C° 0 mm 5 mps 747 mmHg 50%
    20:00 +13°C° 0 mm 5 mps 747 mmHg 51%
    21:00 +13°C° 0 mm 5 mps 747 mmHg 51%
    22:00 +13°C° 0 mm 6 mps 747 mmHg 52%
    23:00 +13°C° 0 mm 6 mps 747 mmHg 54%

    25 October, Thursday

    Time Temperature Precipitation Wind Pressure Humidity
    00:00 +12°C° 0 mm 5 mps 747 mmHg 56%
    01:00 +12°C° 0 mm 5 mps 747 mmHg 58%
    02:00 +11°C° 0 mm 6 mps 747 mmHg 61%
    03:00 +10°C° 0 mm 6 mps 747 mmHg 63%
    04:00 +10°C° 0 mm 6 mps 747 mmHg 65%
    05:00 +9°C° 0 mm 6 mps 747 mmHg 65%
    06:00 +9°C° 0 mm 6 mps 747 mmHg 65%
    07:00 +9°C° 0 mm 7 mps 746 mmHg 65%
    08:00 +10°C° 0 mm 7 mps 746 mmHg 58%
    09:00 +11°C° 0 mm 8 mps 746 mmHg 50%
    10:00 +13°C° 0 mm 9 mps 746 mmHg 43%
    11:00 +15°C° 0 mm 9 mps 746 mmHg 38%
    12:00 +17°C° 0 mm 9 mps 745 mmHg 34%
    13:00 +18°C° 0 mm 9 mps 745 mmHg 30%
    14:00 +18°C° 0 mm 9 mps 744 mmHg 29%
    15:00 +18°C° 0 mm 9 mps 744 mmHg 29%
    16:00 +18°C° 0 mm 8 mps 744 mmHg 29%
    17:00 +17°C° 0 mm 9 mps 743 mmHg 30%
    18:00 +16°C° 0 mm 9 mps 743 mmHg 31%
    19:00 +15°C° 0 mm 9 mps 743 mmHg 32%
    20:00 +14°C° 0 mm 10 mps 743 mmHg 33%
    21:00 +14°C° 0 mm 10 mps 743 mmHg 34%
    22:00 +13°C° 0 mm 10 mps 742 mmHg 36%
    23:00 +13°C° 0 mm 10 mps 742 mmHg 36%

    26 October, Friday

    Time Temperature Precipitation Wind Pressure Humidity
    00:00 +13°C° 0 mm 10 mps 741 mmHg 36%
    01:00 +13°C° 0 mm 10 mps 741 mmHg 36%
    02:00 +14°C° 0 mm 10 mps 740 mmHg 36%
    03:00 +14°C° 0 mm 10 mps 740 mmHg 36%
    04:00 +14°C° 0 mm 10 mps 740 mmHg 36%
    05:00 +14°C° 0 mm 10 mps 739 mmHg 37%
    06:00 +15°C° 0 mm 9 mps 739 mmHg 38%
    07:00 +15°C° 0 mm 9 mps 739 mmHg 39%
    08:00 +16°C° 0 mm 9 mps 739 mmHg 39%
    09:00 +17°C° 0 mm 9 mps 739 mmHg 39%
    10:00 +17°C° 0 mm 9 mps 739 mmHg 39%
    11:00 +18°C° 0.1 mm 8 mps 739 mmHg 41%
    12:00 +18°C° 0.1 mm 7 mps 740 mmHg 43%
    13:00 +19°C° 0.1 mm 6 mps 740 mmHg 45%
    14:00 +16°C° 0.7 mm 6 mps 740 mmHg 56%
    15:00 +14°C° 0.7 mm 5 mps 740 mmHg 67%
    16:00 +13°C° 0.7 mm 5 mps 741 mmHg 77%
    17:00 +12°C° 0.7 mm 5 mps 741 mmHg 75%
    18:00 +12°C° 0.7 mm 4 mps 742 mmHg 73%
    19:00 +11°C° 0.7 mm 4 mps 742 mmHg 71%
    20:00 +11°C° 0 mm 4 mps 742 mmHg 67%
    21:00 +10°C° 0 mm 4 mps 743 mmHg 62%
    22:00 +10°C° 0 mm 4 mps 743 mmHg 58%
    23:00 +8°C° 0 mm 4 mps 744 mmHg 59%
    Show more